Погода в Котласе

Поиск расширенной информации на нашем сайте:

Полезная информация:

Новости сайта



02.01.2020
Опубликован Долгосрочный прогноз погоды по городам России и ближнего зарубежья на январь 2020 года.
Карты: Прогноз на январь и февраль 2020 года, Сравнение прогнозируемой аномалии приземной температуры воздуха на январь 2020 года по разным моделям.




Погода в Котласе - сегодня

Время (UTC), дата Ветер
(°,м/с) 
Видим.   Явления Облачность Т
(°С)
Тd
(°С)
f(%) Тe
(°С)
Pmin
(гПа)
dP
(гПа)
Po
(мм)
O2
(г/м3)
Тmin Tmax R s Состояние
почвы
12 03.03.21 270 (З) 4{10}  20000 м  {ливн. осадки}  10/6 930 м средняя 
[Sc|Ac und]
-2.3 -7.4 68 -5  997  -0.4  743  302           
15 03.03.21 270 (З) 4000 м  слаб. ливневой снег  10/4 600 м кучево-дожд., средняя 
[Cb cap|Ac und]
-2.7 -7.6 69 -5  997  743  303    -2.1  0.3     
18 03.03.21 220 (ЮЗ) 10 км  {ливн. осадки}  8/3 600 м средняя, верхняя 
[Sc|Ac trans|Ci fib]
-5.4 -7.2 87 -7  995.9  -1.1  742  306           
21 03.03.21 210 (ЮЗ) 10 км    6/0 средняя, верхняя 
[Ac trans|Ci fib]
-7.3 -8.2 93 -9  993.7  -2.2  740  307           
00 04.03.21 140 (ЮВ) 4000 м  слаб. снег  10/10 420 м 
[Ns]
-9.1 -10.2 92 -11  992.3  -1.6  739  309           
03 04.03.21 нст () 4000 м  слаб. снег  10/10 330 м 
[Frnb|Ns]
-7.8 -8.8 93 -8  990  -2.3  737  307  -9.3    0.5  48  равномерный
сухой снег
100% 
06 04.03.21 020 (С) 4000 м  слаб. снег  10/6 330 м средняя 
[Frnb|As op]
-7.3 -8.2 93 -7  988.5  -1.3  736  306           
09 04.03.21 330 (СЗ) 50000 м  в посл. час ливневой снег  9/6 270 м средняя, верхняя 
[St|Ac trans|Ci fib]
-5.1 -7.6 83 -7  988.9  0.4  736  303           
12 04.03.21 320 (СЗ) 20000 м  в посл. час ливневой снег  8/5 600 м кучево-дожд., средняя, верхняя 
[Cb cap|Ac trans|Ci fib]
-5.1 -10.1 68 -9  990.5  1.6  738  304           
15 04.03.21 310 (СЗ) 20000 м    9/6 600 м средняя, верхняя 
[Sc|Ac trans|Ci fib]
-8.1 -12.7 69 -11  992.5  1.8  739  308    -4.6  0.5     
18 04.03.21 310 (СЗ) 10 км  слаб. ливневой снег  10/8 420 м кучево-дожд., средняя 
[Cb cap|Ac und]
-11.4 -13.4 85 -13  994.2  1.7  740  312           
21 04.03.21 320 (СЗ) 10 км  {ливн. осадки}  4/1 600 м средняя, верхняя 
[Sc|Ac trans|Ci fib]
-16.1 -17.4 90 -18  995.1  0.8  741  319           
00 05.03.21 320 (СЗ) 10 км  {ливн. осадки}  10/3 600 м средняя, верхняя 
[Sc|Ac trans|Ci fib]
-17.4 -18.6 90 -18  996.3  1.2  742  321           
03 05.03.21 310 (СЗ) 10 км  слаб. ливневой снег  10/4 600 м кучево-дожд., средняя 
[Cb cap|Ac und]
-17.9 -19.1 90 -20  997.6  1.1  743  322  -18.8    0.0  48  равномерный
сухой снег
100% 
06 05.03.21 //0 (С) 10 км  слаб. ливневой снег  10/3 600 м кучево-дожд., верхняя 
[Cb cap|Ci fib]
-16.6 -18.5 85 -17  999.2  1.7  744  321  -19         
09 05.03.21 330 (СЗ) 20000 м  {ливн. осадки}  9/1 600 м средняя, верхняя 
[Sc|Ac trans|Ci fib]
-13.4 -16.9 75 -17  1000.4  1.2  745  317           
12 05.03.21 310 (СЗ) 4000 м  слаб. ливневой снег  8/3 300 м кучево-дожд., верхняя 
[Cb cap|Ci fib]
-11.8 -14.5 80 -14  1001.5  1.2  746  315           
15 05.03.21 300 (СЗ) 10 км  {ливн. осадки}  8/3 300 м средняя, верхняя 
[Sc|Ac trans|Ci fib]
-13.8 -15.8 85 -14  1003.7  2.1  747  318    -11.6  0.2     
18 05.03.21 310 (СЗ) 4000 м  слаб. ливневой снег  6/3 600 м кучево-дожд., средняя, верхняя 
[Cb cap|Ac trans|Ci fib]
-16.2 -18.1 85 -19  1004.9  1.2  748  322           
21 05.03.21 тихо ()   10 км  {ливн. осадки}  5/0 средняя, верхняя 
[Ac trans|Ci fib]
-21.6 -23.4 85 -22  1006.2  1.2  749  329           
00 06.03.21 300 (СЗ) 10 км  {ливн. осадки}  8/0 средняя, верхняя 
[Ac trans|Ci fib]
-17.4 -19.3 85 -20  1007.1  748  324           
03 06.03.21 290 (З) 10 км    3/0 верхняя 
[Ci fib]
-24.3 -26.1 85 -25  1008.8  1.3  751  334  -24.3    0.0  48  равномерный
сухой снег
100% 
06 06.03.21 310 (СЗ) 20000 м    4/0 верхняя 
[Ci fib]
-18.8 -20.7 85 -21  1009.6  752  327  -25.8         
09 06.03.21 290 (З) 20000 м    5/3 600 м верхняя 
[Sc|Ci fib]
-14.6 -18.1 75 -17  1010  0.5  752  322           
12 06.03.21 300 (СЗ) 10 км  слаб. ливневой снег  8/4 300 м кучево-дожд., средняя, верхняя 
[Cb cap|Ac trans|Ci fib]
-12.7 -16.2 75 -13  1009.8  -0.2  752  319           
Время (UTC), дата Ветер
(°,м/с) 
Видим.   Явления Облачность Т
(°С)
Тd
(°С)
f(%) Тe
(°С)
Pmin
(гПа)
dP
(гПа)
Po
(мм)
O2
(г/м3)
Тmin Tmax R s Состояние
почвы

Для получения пояснительной информации подведите курсор к названию столбца.

ПОГОДА в Котласе - архив

Всё, что Вы хотите узнать о погоде в Котласе - удобно и подробно!

Выберите нужную дату (начиная с 1 января 2019* года) и нажмите кнопку "Найти".
Будут отображены архивные сводки погоды по пункту Котлас, начиная с указанной даты.


Отображать данные в формате CSV (для использования в таблицах Excel)


Внимание! Наш архив погоды предназначен исключительно для личного некоммерческого использования в познавательных целях. Если Вам необходимы официальные справки о состоянии погоды (для производственных, юридических, коммерческих и т.п. целей), обращайтесь в органы Росгидромета.

*Примечание: данная дата относится к архиву по метеостанциям СССР (Россия, СНГ, Балтия).
Архив по метеостанциям Зарубежной Европы и Азии (кроме Китая) хранится 10 дней, по другим регионам земного шара (Китай, Африка, Америка, Австралия, Океания) - 1 день.

Котлас - район местоположения метеостанции


Название, широта, долгота, высота метеостанции:
Котлас 61.2°ш. 46.7°д. 56 м над ур. моря [Российская Федерация]

Дополнительная информация

В oтличие oт бoльшинства пoгoдных сайтoв мы публикуем пoдрoбную метеoинфoрмацию в детальнoм прoфессиoнальнoм фoрмате.

Характеристики температуры и влажнoсти вoздуха измеряются на высoте 2 м в тени вдали oт зданий и деревьев.
Скoрoсть ветра измеряется на высoте 10 м (на урoвне рoста челoвека скoрoсть ветра ниже в 1.5-2 раза). Если метеoстанция нахoдится в гoрoде или в лесу, тo скoрoсть ветра занижена на 2-4 м/с пo сравнению с oткрытым местoм. Скoрoсть ветра над акватoриями крупных рек и oзёр, а также на вершинах хoлмoв на 2-5 м/с выше, чем в oбычных услoвиях.
Атмoсфернoе давление в разных тoчках местнoсти мoжет значительнo oтличаться oт давления на метеoстанции, в зависимoсти oт услoвий рельефа (при пoдъёме на 10 м давление пoнижается примернo на 1 мм рт.ст.).